Romeoville, IL

8:54 PM CDT on September 21, 2017 (GMT -0500)
Lewis University

Weather History for KLOT - May, 2013

Change the Weather History Date:

Friday, May 24, 2013

  Actual Average Record
Temperature  
Mean Temperature 49 °F 63 °F  
Max Temperature 60 °F 72 °F 92 °F (2010)
Min Temperature 38 °F 52 °F 34 °F (1992)
Degree Days  
Heating Degree Days 16 4  
Month to date heating degree days 132 167  
Since 1 July heating degree days 6111 6161  
Cooling Degree Days 0 2  
Month to date cooling degree days 68 33  
Year to date cooling degree days 75 38  
Moisture  
Dew Point 33 °F    
Average Humidity 56    
Maximum Humidity 80    
Minimum Humidity 33    
Precipitation  
Precipitation 0.00 in 0.14 in 0.68 in (2015)
Month to date precipitation 2.39 3.30  
Year to date precipitation 18.33 13.74  
Sea Level Pressure  
Sea Level Pressure 30.36 in    
Wind  
Wind Speed 10 mph (NE)    
Max Wind Speed 18 mph    
Max Gust Speed 26 mph    
Visibility 9 miles    
Events      
T = Trace of Precipitation, MM = Missing Value Source: NWS Daily Summary

Daily Weather History Graph

Daily Weather History Graph

Search for Another Location

Airport or City:

Trip Planner

Search our weather history database for the weather conditions in past years. The results will help you decide how hot, cold, wet, or windy it might be!

Date:

Astronomy

May. 24, 2013 Rise Set
Actual Time 5:25 AM CDT 8:13 PM CDT
Civil Twilight 4:52 AM CDT 8:46 PM CDT
Nautical Twilight 4:11 AM CDT 9:27 PM CDT
Astronomical Twilight 3:24 AM CDT 10:15 PM CDT
Moon 7:55 PM CDT (5/24) 4:57 AM CDT (5/24)
Length of Visible Light 15h 54m
Length of Day
14h 48m
Full, 100% of the Moon is Illuminated
May 24
Full
May 24
Full
May 31
Last Quarter
Jun 8
New
Jun 16
First Quarter

Hourly Weather History & Observations

Time (CDT) Temp. Windchill Dew Point Humidity Pressure Visibility Wind Dir Wind Speed Gust Speed Precip Events Conditions
12:15 AM 41.2 °F 33.7 °F 32.9 °F 72% 30.29 in 10.0 mi NE 13.8 mph - N/A   Clear
12:35 AM 41.5 °F 33.8 °F 32.7 °F 71% 30.28 in 10.0 mi NE 15.0 mph - N/A   Clear
12:55 AM 41.5 °F 32.9 °F 32.9 °F 71% 30.28 in 10.0 mi NE 18.4 mph 24.2 mph N/A   Clear
1:15 AM 41.4 °F 33.0 °F 32.9 °F 72% 30.27 in 10.0 mi NNE 17.3 mph 26.5 mph N/A   Clear
1:35 AM 40.6 °F 33.4 °F 33.3 °F 75% 30.29 in 10.0 mi NNE 12.7 mph 19.6 mph N/A   Clear
1:55 AM 40.6 °F 33.4 °F 33.1 °F 74% 30.29 in 10.0 mi NNE 12.7 mph - N/A   Clear
2:15 AM 40.6 °F 33.4 °F 32.9 °F 74% 30.29 in 10.0 mi NE 12.7 mph - N/A   Clear
2:35 AM 40.6 °F 33.0 °F 32.5 °F 73% 30.30 in 10.0 mi NNE 13.8 mph 18.4 mph N/A   Clear
2:55 AM 40.5 °F 32.8 °F 32.4 °F 73% 30.30 in 10.0 mi NE 13.8 mph - N/A   Clear
3:15 AM 41.0 °F 33.1 °F 32.0 °F 70% 30.30 in 10.0 mi NE 15.0 mph 19.6 mph N/A   Clear
3:35 AM 40.8 °F 33.7 °F 32.0 °F 71% 30.31 in 10.0 mi NNE 12.7 mph 18.4 mph N/A   Clear
3:55 AM 39.9 °F 34.5 °F 32.0 °F 73% 30.32 in 10.0 mi North 8.1 mph - N/A   Clear
4:15 AM 39.4 °F 33.8 °F 32.0 °F 75% 30.33 in 10.0 mi NNE 8.1 mph - N/A   Clear
4:35 AM 39.2 °F 35.0 °F 32.0 °F 75% 30.34 in 10.0 mi North 5.8 mph - N/A   Clear
4:55 AM 38.5 °F 34.1 °F 32.0 °F 78% 30.34 in 10.0 mi North 5.8 mph - N/A   Clear
5:15 AM 37.8 °F 33.3 °F 32.0 °F 80% 30.35 in 10.0 mi North 5.8 mph - N/A   Clear
5:35 AM 38.1 °F 34.6 °F 32.2 °F 79% 30.35 in 10.0 mi North 4.6 mph - N/A   Clear
5:55 AM 38.7 °F 35.2 °F 32.5 °F 79% 30.35 in 10.0 mi North 4.6 mph - N/A   Clear
6:15 AM 39.2 °F 35.9 °F 33.3 °F 79% 30.35 in 10.0 mi NNE 4.6 mph - N/A   Clear
6:35 AM 41.2 °F 35.5 °F 33.6 °F 74% 30.36 in 10.0 mi NNE 9.2 mph - N/A   Clear
6:55 AM 42.3 °F 35.5 °F 34.0 °F 72% 30.37 in 10.0 mi NNE 12.7 mph - N/A   Clear
7:15 AM 43.5 °F 38.9 °F 34.3 °F 70% 30.39 in 10.0 mi NNE 8.1 mph 16.1 mph N/A   Clear
7:35 AM 44.6 °F 38.8 °F 33.8 °F 66% 30.39 in 10.0 mi NNE 11.5 mph - N/A   Clear
7:55 AM 45.7 °F 41.5 °F 34.2 °F 64% 30.41 in 10.0 mi NNE 8.1 mph - N/A   Clear
8:15 AM 46.4 °F 42.4 °F 34.0 °F 62% 30.42 in 10.0 mi ENE 8.1 mph - N/A   Clear
8:35 AM 46.8 °F - 33.6 °F 60% 30.42 in 10.0 mi NE 5.8 mph - N/A   Clear
8:55 AM 47.5 °F - 33.4 °F 58% 30.43 in 10.0 mi NE 8.1 mph - N/A   Clear
9:15 AM 48.7 °F - 34.2 °F 57% 30.42 in 10.0 mi NE 11.5 mph - N/A   Clear
9:35 AM 49.5 °F - 34.7 °F 57% 30.43 in 10.0 mi North 8.1 mph - N/A   Clear
9:55 AM 50.0 °F - 33.3 °F 53% 30.43 in 10.0 mi NNE 8.1 mph - N/A   Clear
10:15 AM 51.4 °F - 34.5 °F 52% 30.42 in 10.0 mi NNE 11.5 mph - N/A   Clear
10:35 AM 52.0 °F - 34.7 °F 52% 30.41 in 10.0 mi NNE 11.5 mph - N/A   Clear
10:55 AM 53.1 °F - 34.2 °F 49% 30.41 in 10.0 mi NE 12.7 mph - N/A   Clear
11:15 AM 53.6 °F - 34.2 °F 48% 30.41 in 10.0 mi NE 8.1 mph - N/A   Clear
11:35 AM 54.5 °F - 34.9 °F 48% 30.41 in 10.0 mi NE 12.7 mph - N/A   Clear
11:55 AM 55.0 °F - 34.7 °F 46% 30.41 in 10.0 mi NNE 12.7 mph - N/A   Clear
12:15 PM 55.8 °F - 35.2 °F 46% 30.41 in 10.0 mi NNE 8.1 mph - N/A   Clear
12:35 PM 57.2 °F - 35.6 °F 44% 30.41 in 10.0 mi NNE 8.1 mph - N/A   Clear
12:55 PM 57.6 °F - 34.2 °F 41% 30.40 in 10.0 mi NE 10.4 mph - N/A   Clear
1:15 PM 57.9 °F - 34.9 °F 42% 30.40 in 10.0 mi East 6.9 mph - N/A   Clear
1:35 PM 59.4 °F - 33.4 °F 38% 30.40 in 10.0 mi ENE 6.9 mph 16.1 mph N/A   Clear
1:55 PM 59.4 °F - 32.9 °F 37% 30.40 in 10.0 mi NE 9.2 mph 19.6 mph N/A   Clear
2:15 PM 59.0 °F - 31.8 °F 36% 30.39 in 10.0 mi ENE 6.9 mph - N/A   Clear
2:35 PM 59.7 °F - 30.4 °F 33% 30.38 in 10.0 mi ENE 9.2 mph - N/A   Clear
2:55 PM 59.9 °F - 31.8 °F 35% 30.38 in 10.0 mi East 9.2 mph - N/A   Clear
3:15 PM 60.1 °F - 33.8 °F 37% 30.38 in 10.0 mi ENE 9.2 mph - N/A   Clear
3:35 PM 59.7 °F - 31.3 °F 34% 30.37 in 10.0 mi ENE 6.9 mph - N/A   Clear
3:55 PM 59.7 °F - 32.5 °F 36% 30.36 in 7.0 mi ENE 10.4 mph - N/A   Clear
4:15 PM 59.5 °F - 31.6 °F 35% 30.35 in 10.0 mi East 11.5 mph - N/A   Clear
4:35 PM 59.0 °F - 29.7 °F 33% 30.34 in 7.0 mi ENE 10.4 mph - N/A   Clear
4:55 PM 59.0 °F - 29.8 °F 33% 30.34 in 0.8 mi East 6.9 mph - N/A   Haze
5:15 PM 58.1 °F - 31.6 °F 37% 30.34 in 0.5 mi East 10.4 mph - N/A   Haze
5:35 PM 57.4 °F - 31.1 °F 37% 30.34 in 0.5 mi East 8.1 mph - N/A   Haze
5:55 PM 57.2 °F - 30.2 °F 36% 30.34 in 0.2 mi East 8.1 mph - N/A   Haze
6:15 PM 56.3 °F - 29.7 °F 36% 30.33 in 10.0 mi ESE 8.1 mph - N/A   Unknown
6:35 PM 55.8 °F - 29.7 °F 37% 30.33 in 10.0 mi East 6.9 mph - N/A   Clear
6:55 PM 54.9 °F - 30.0 °F 39% 30.33 in 10.0 mi East 9.2 mph - N/A   Clear
7:15 PM 54.0 °F - 30.7 °F 41% 30.34 in 10.0 mi ENE 6.9 mph - N/A   Clear
7:35 PM 51.8 °F - 29.8 °F 43% 30.34 in 10.0 mi East 6.9 mph - N/A   Clear
7:55 PM 50.4 °F - 28.8 °F 43% 30.34 in 10.0 mi East 6.9 mph - N/A   Clear
8:15 PM 49.3 °F - 29.8 °F 47% 30.33 in 10.0 mi East 5.8 mph - N/A   Clear
8:35 PM 48.7 °F - 31.3 °F 51% 30.34 in 10.0 mi East 5.8 mph - N/A   Clear
8:55 PM 47.5 °F - 32.2 °F 55% 30.35 in 10.0 mi ENE 5.8 mph - N/A   Clear
9:15 PM 47.5 °F - 32.9 °F 57% 30.36 in 10.0 mi ENE 6.9 mph - N/A   Clear
9:35 PM 46.4 °F 44.3 °F 34.2 °F 62% 30.37 in 10.0 mi East 4.6 mph - N/A   Clear
9:55 PM 46.4 °F 43.5 °F 34.5 °F 63% 30.37 in 10.0 mi East 5.8 mph - N/A   Clear
10:15 PM 45.5 °F 43.2 °F 35.6 °F 68% 30.38 in 10.0 mi East 4.6 mph - N/A   Clear
10:35 PM 45.0 °F 42.6 °F 35.4 °F 69% 30.37 in 10.0 mi East 4.6 mph - N/A   Clear
10:55 PM 43.9 °F - 34.9 °F 71% 30.38 in 10.0 mi Calm Calm - N/A   Clear
11:15 PM 45.1 °F 42.8 °F 34.9 °F 67% 30.38 in 10.0 mi ENE 4.6 mph - N/A   Clear
11:35 PM 44.2 °F 41.0 °F 35.8 °F 72% 30.37 in 10.0 mi East 5.8 mph - N/A   Clear
11:55 PM 44.4 °F 41.2 °F 35.6 °F 71% 30.37 in 10.0 mi East 5.8 mph - N/A   Clear